Regional Weather Roundup
Issued by NWS Sterling, VA

Home | Current Version | Previous Version | Text Only | Print | Product List | Glossary On
Versions: 1 2 3 4 5 6 7 8 9 10 11 12 13 14 15 16 17 18 19 20 21 22 23 24 25 26 27 28 29 30 31 32 33 34 35 36 37 38 39 40 41 42 43 44 45 46 47 48 49 50
000
ASUS41 KLWX 300110
RWRLWX

REGIONAL WEATHER ROUNDUP
NATIONAL WEATHER SERVICE BALTIMORE MD/WASHINGTON DC
900 PM EDT SUN MAY 29 2016

Note: "FAIR" indicates few or no clouds below 12,000 feet
with no significant weather and/or obstructions to visibility.
 TC=TEMPERATURE CELSIUS

 * =Non NWS site. Station does not report precipitation (e.g. rain,
    snow, etc.), thunder, or fog.

DCZ001-MDZ009-015-VAZ040>042-051-053>054-300200-
WASHINGTON METRO

CITY           SKY/WX    TMP DP  RH WIND       PRES   REMARKS
WASHINGTON NAT LGT RAIN  70  66  87 N9        30.07F
DULLES         LGT RAIN  71  67  87 CALM      30.07F
ANDREWS AFB    DRIZZLE   69  67  93 NW9       30.06F
FT BELVOIR     LGT RAIN  70  68  94 CALM      30.06F
QUANTICO       LGT RAIN  72  68  87 E6        30.07F
COLLEGE PARK*  FAIR      68  61  77 NW3       30.07S
LEESBURG*      LGT RAIN  73  73 100 S7        30.08S
MANASSAS*      CLOUDY    70  68  94 W5        30.07S

$$

MDZ006>007-011-014-300200-
BALTIMORE METRO

CITY           SKY/WX    TMP DP  RH WIND       PRES   REMARKS
BWI AIRPORT    LGT RAIN  72  70  93 CALM      30.06S
MD SCIENCE CTR   N/A     73  70  90 MISG      30.06F
MARTIN STATE   RAIN      73  73 100 CALM      30.07F
ANNAPOLIS      LGT RAIN  72  71  97 W5        30.05F FOG
FORT MEADE*    CLOUDY    70  68  94 W3        30.09S

$$

MDZ012-015-019>023-300200-
MARYLAND EASTERN SHORE

CITY           SKY/WX    TMP DP  RH WIND       PRES   REMARKS
OCEAN CITY     CLOUDY    69  68  96 S5        30.08S
SALISBURY      CLOUDY    73  71  93 SE6       30.07S
BAY BRIDGE AP* LGT RAIN  73  72  94 CALM      30.06S FOG
CAMBRIDGE*     CLOUDY    72  72 100 SE3       30.06S
EASTON*        LGT RAIN  75  75 100 S3        30.10S

$$

MDZ017>025-300200-
SOUTHERN MARYLAND

CITY           SKY/WX    TMP DP  RH WIND       PRES   REMARKS
PATUXENT RIVER CLOUDY    72  70  93 SE6       30.05S
ST INIGOES     CLOUDY    73  71  93 E3        30.04S
LEONARDTOWN*   CLOUDY    72  70  94 SE5       30.06F

$$

MDZ003>005-300200-
NORTH CENTRAL MARYLAND

CITY           SKY/WX    TMP DP  RH WIND       PRES   REMARKS
FREDERICK*     DRIZZLE   72  63  73 S5        30.09S
HAGERSTOWN APT LGT RAIN  73  63  70 SW5       30.07S
WESTMINSTER*   DRIZZLE   72  70  94 SE5       30.08F

$$

MDZ501>502-300200-
WESTERN MARYLAND

CITY           SKY/WX    TMP DP  RH WIND       PRES   REMARKS
OAKLAND*       CLOUDY    59  59 100 SE9       30.14F FOG
CUMBERLAND*    CLOUDY    68  68 100 S3        30.11F

$$

VAZ025>031-300200-
SHENANDOAH VALLEY

CITY           SKY/WX    TMP DP  RH WIND       PRES   REMARKS
WINCHESTER*    CLOUDY    70  66  88 NW3       30.08S
FRONT ROYAL*   CLOUDY    68  68 100 CALM      30.08S
LURAY*         MOCLDY    66  66 100 S6        30.10S
NEW MARKET*    FAIR      63  62  99 CALM      30.10S
STAUNTON*      CLOUDY    62  61  95 CALM      30.13F
WAYNESBORO*    CLOUDY    62  61  94 CALM      30.13S

$$

WVZ021-048>050-054>055-300200-
EASTERN WEST VIRGINIA PANHANDLE

CITY           SKY/WX    TMP DP  RH WIND       PRES   REMARKS
MARTINSBURG    LGT RAIN  68  66  93 S5        30.07S
PETERSBURG*    MOCLDY    66  62  88 CALM      30.11F

$$

VAZ036>039-050-300200-
CENTRAL FOOTHILLS

CITY           SKY/WX    TMP DP  RH WIND       PRES   REMARKS
CHARLOTTESVILL CLOUDY    70  63  78 CALM      30.08R
CULPEPER*      RAIN      69  68  98 CALM      30.09R
ORANGE*        CLOUDY    70  70 100 CALM      30.10R
GORDONSVILLE*  CLOUDY    68  68  99 NW3       30.07S
WARRENTON*     LGT RAIN  67  60  77 CALM      30.07S

$$

VAZ055>057-300200-
NORTH AND CENTRAL PIEDMONT

CITY           SKY/WX    TMP DP  RH WIND       PRES   REMARKS
FREDERICKSBRG* LGT RAIN  70  70 100 CALM      30.06R
STAFFORD*      LGT RAIN  69  64  84 N5        30.10F

$$

NCZ024-NYZ072-PAZ021-071-VAZ022-071-300200-
OTHER REGIONAL OBSERVATIONS

CITY           SKY/WX    TMP DP  RH WIND       PRES   REMARKS
NEW YORK CITY  CLOUDY    73  64  73 VRB3      30.08F
PHILADELPHIA   LGT RAIN  73  71  93 SW8       30.07F FOG
PITTSBURGH     CLOUDY    70  59  68 S3        30.05F
ROANOKE        LGT RAIN  61  59  93 N7        30.14S
RICHMOND       CLOUDY    70  69  97 N5        30.05S
RALEIGH        CLOUDY    68  66  93 VRB3      30.05R

$$

ANZ530>537-300200-
MARINE OBSERVATIONS

STATION/POSITION TIME  TEMP    WIND        PRES
                       AIR SEA DIR/SP/G
                 (UTC) (F)     (DEG/KT/KT) (MB)
THOMAS PT LIGHT  0100   72 68  240/  4/  4 1019.1F
BALT KEY BRIDGE  0000   72                 1018.0S
COVE POINT       0000   71                 1018.3F
LEWISETTA        0000   71 70              1017.2F
SOLOMONS ISLAND  0000   71 69                N/A

$$




USA.gov is the U.S. government's official web portal to all federal, state and local government web resources and services.